| time (UTC) | temp C | wind direction | speed KPH | gust KPH | rain 1hr cm | rain 24hr cm | rain mn cm | humidity % | barometer mb |
| 20260508104559 | 10 | 202 | 0.0 | 0.0 | 0.00 | 0.00 | 0.00 | 73 | 1012.7 |
| 20260508103042 | 10 | 202 | 0.0 | 0.0 | 0.00 | 0.00 | 0.00 | 73 | 1012.7 |
| 20260508101531 | 10 | 202 | 0.0 | 1.6 | 0.00 | 0.00 | 0.00 | 71 | 1012.8 |
| 20260508100033 | 10 | 202 | 0.0 | 1.6 | 0.00 | 0.00 | 0.00 | 72 | 1012.8 |
| 20260508094529 | 10 | 188 | 0.0 | 3.2 | 0.00 | 0.00 | 0.00 | 72 | 1012.9 |
| 20260508093028 | 10 | 188 | 0.0 | 0.0 | 0.00 | 0.00 | 0.00 | 72 | 1013.0 |
| 20260508091527 | 10 | 188 | 0.0 | 0.0 | 0.00 | 0.00 | 0.00 | 73 | 1013.0 |
| 20260508090028 | 10 | 188 | 0.0 | 3.2 | 0.00 | 0.00 | 0.00 | 74 | 1013.0 |
| 20260508084524 | 9 | 184 | 0.0 | 0.0 | 0.00 | 0.00 | 0.00 | 76 | 1012.9 |
| 20260508083022 | 10 | 184 | 0.0 | 0.0 | 0.00 | 0.00 | 0.00 | 75 | 1012.9 |
| 20260508081522 | 10 | 184 | 0.0 | 0.0 | 0.00 | 0.00 | 0.00 | 73 | 1012.9 |
| 20260508080020 | 10 | 184 | 0.0 | 0.0 | 0.00 | 0.00 | 0.00 | 73 | 1013.0 |
| 20260508074520 | 10 | 184 | 0.0 | 0.0 | 0.00 | 0.00 | 0.00 | 74 | 1013.1 |
| 20260508073022 | 10 | 184 | 0.0 | 0.0 | 0.00 | 0.00 | 0.00 | 75 | 1013.1 |
| 20260508071517 | 10 | 270 | 0.0 | 0.0 | 0.00 | 0.00 | 0.00 | 74 | 1013.2 |
| 20260508070021 | 10 | 270 | 0.0 | 0.0 | 0.00 | 0.00 | 0.00 | 75 | 1013.4 |
| 20260508064510 | 10 | 270 | 0.0 | 0.0 | 0.00 | 0.00 | 0.00 | 73 | 1013.5 |
| 20260508063006 | 10 | 270 | 0.0 | 0.0 | 0.00 | 0.00 | 0.00 | 72 | 1013.8 |
| 20260508061507 | 11 | 270 | 0.0 | 0.0 | 0.00 | 0.00 | 0.00 | 70 | 1013.9 |
| 20260508060100 | 11 | 270 | 0.0 | 0.0 | 0.00 | 0.00 | 0.00 | 67 | 1014.0 |
| 20260508054558 | 11 | 270 | 0.0 | 0.0 | 0.00 | 0.00 | 0.00 | 66 | 1014.1 |
| 20260508053105 | 12 | 270 | 0.0 | 0.0 | 0.00 | 0.00 | 0.00 | 65 | 1014.1 |
| 20260508051554 | 12 | 270 | 0.0 | 0.0 | 0.00 | 0.00 | 0.00 | 64 | 1014.0 |
| 20260508050058 | 12 | 270 | 0.0 | 3.2 | 0.00 | 0.00 | 0.00 | 64 | 1014.1 |
| 20260508044552 | 12 | 271 | 0.0 | 0.0 | 0.00 | 0.00 | 0.00 | 64 | 1014.1 |
| 20260508043101 | 12 | 271 | 0.0 | 0.0 | 0.00 | 0.00 | 0.00 | 64 | 1014.2 |
| 20260508041550 | 12 | 271 | 0.0 | 0.0 | 0.00 | 0.00 | 0.00 | 64 | 1014.2 |
| 20260508040050 | 12 | 271 | 0.0 | 0.0 | 0.00 | 0.00 | 0.00 | 64 | 1014.2 |
| 20260508034550 | 12 | 271 | 0.0 | 0.0 | 0.00 | 0.00 | 0.00 | 64 | 1014.1 |
| 20260508033050 | 12 | 271 | 0.0 | 1.6 | 0.00 | 0.00 | 0.00 | 65 | 1014.2 |
| 20260508030056 | 12 | 271 | 0.0 | 0.0 | 0.00 | 0.00 | 0.00 | 62 | 1014.3 |
| 20260508024555 | 13 | 271 | 0.0 | 0.0 | 0.00 | 0.00 | 0.00 | 60 | 1014.3 |
| 20260508023047 | 13 | 271 | 0.0 | 0.0 | 0.00 | 0.00 | 0.00 | 58 | 1014.3 |
| 20260508021546 | 13 | 271 | 0.0 | 0.0 | 0.00 | 0.00 | 0.00 | 58 | 1014.2 |
| 20260508020045 | 14 | 271 | 0.0 | 0.0 | 0.00 | 0.00 | 0.00 | 55 | 1014.0 |
| 20260508014545 | 15 | 271 | 0.0 | 0.0 | 0.00 | 0.00 | 0.00 | 53 | 1013.7 |
| 20260508013045 | 15 | 271 | 0.0 | 0.0 | 0.00 | 0.00 | 0.00 | 52 | 1013.7 |
| 20260508011545 | 16 | 271 | 0.0 | 0.0 | 0.00 | 0.00 | 0.00 | 49 | 1013.6 |
| 20260508010044 | 16 | 271 | 0.0 | 0.0 | 0.00 | 0.00 | 0.00 | 46 | 1013.4 |
| 20260508004544 | 17 | 271 | 0.0 | 0.0 | 0.00 | 0.00 | 0.00 | 44 | 1013.2 |
| 20260508003043 | 18 | 262 | 0.0 | 0.0 | 0.00 | 0.00 | 0.00 | 42 | 1013.1 |
| 20260508001546 | 18 | 234 | 0.0 | 1.6 | 0.00 | 0.00 | 0.00 | 41 | 1013.1 |
| 20260508000041 | 18 | 229 | 0.0 | 1.6 | 0.00 | 0.00 | 0.00 | 40 | 1013.0 |
| 20260507234543 | 18 | 251 | 0.0 | 6.4 | 0.00 | 0.00 | 0.00 | 39 | 1013.1 |
| 20260507233040 | 18 | 197 | 0.0 | 4.8 | 0.00 | 0.00 | 0.00 | 39 | 1013.2 |
| 20260507231541 | 19 | 235 | 0.0 | 9.7 | 0.00 | 0.00 | 0.00 | 39 | 1013.3 |
| 20260507230037 | 19 | 200 | 0.0 | 14.5 | 0.00 | 0.00 | 0.00 | 38 | 1013.4 |
| 20260507224536 | 19 | 161 | 0.0 | 1.6 | 0.00 | 0.00 | 0.00 | 40 | 1013.5 |
| 20260507223035 | 19 | 218 | 0.0 | 6.4 | 0.00 | 0.00 | 0.00 | 39 | 1013.7 |
| 20260507221534 | 19 | 209 | 0.0 | 1.6 | 0.00 | 0.00 | 0.00 | 39 | 1013.7 |
| 20260507220032 | 19 | 163 | 0.0 | 8.0 | 0.00 | 0.00 | 0.00 | 38 | 1013.9 |
| 20260507214530 | 19 | 183 | 0.0 | 11.3 | 0.00 | 0.00 | 0.00 | 39 | 1013.7 |
| 20260507213029 | 19 | 207 | 0.0 | 11.3 | 0.00 | 0.00 | 0.00 | 39 | 1013.9 |
| 20260507211527 | 18 | 178 | 0.0 | 9.7 | 0.00 | 0.00 | 0.00 | 39 | 1014.1 |
| 20260507210023 | 18 | 225 | 0.0 | 16.1 | 0.00 | 0.00 | 0.00 | 39 | 1014.3 |
| 20260507204521 | 18 | 158 | 0.0 | 8.0 | 0.00 | 0.00 | 0.00 | 39 | 1014.5 |
| 20260507203019 | 18 | 234 | 0.0 | 6.4 | 0.00 | 0.00 | 0.00 | 39 | 1014.8 |
| 20260507201517 | 18 | 240 | 0.0 | 9.7 | 0.00 | 0.00 | 0.00 | 39 | 1015.0 |
| 20260507200015 | 18 | 263 | 0.0 | 1.6 | 0.00 | 0.00 | 0.00 | 39 | 1015.0 |
| 20260507194511 | 18 | 186 | 0.0 | 8.0 | 0.00 | 0.00 | 0.00 | 38 | 1015.0 |
| 20260507193009 | 18 | 245 | 0.0 | 8.0 | 0.00 | 0.00 | 0.00 | 39 | 1015.2 |
| 20260507191507 | 18 | 281 | 0.0 | 8.0 | 0.00 | 0.00 | 0.00 | 40 | 1015.5 |
| 20260507190006 | 17 | 346 | 0.0 | 1.6 | 0.00 | 0.00 | 0.00 | 39 | 1015.6 |
| 20260507184502 | 17 | 148 | 0.0 | 11.3 | 0.00 | 0.00 | 0.00 | 38 | 1015.8 |
| 20260507183001 | 18 | 291 | 0.0 | 6.4 | 0.00 | 0.00 | 0.00 | 41 | 1015.8 |
| 20260507181558 | 17 | 355 | 1.6 | 16.1 | 0.00 | 0.00 | 0.00 | 40 | 1016.1 |
| 20260507180054 | 17 | 320 | 1.6 | 17.7 | 0.00 | 0.00 | 0.00 | 39 | 1016.2 |
| 20260507174551 | 17 | 205 | 0.0 | 6.4 | 0.00 | 0.00 | 0.00 | 43 | 1016.4 |
| 20260507173048 | 17 | 213 | 0.0 | 4.8 | 0.00 | 0.00 | 0.00 | 41 | 1016.6 |
| 20260507171550 | 16 | 275 | 0.0 | 16.1 | 0.00 | 0.00 | 0.00 | 39 | 1016.9 |
| 20260507170042 | 16 | 294 | 1.6 | 16.1 | 0.00 | 0.00 | 0.00 | 38 | 1017.2 |
| 20260507164555 | 16 | 355 | 0.0 | 6.4 | 0.00 | 0.00 | 0.00 | 42 | 1017.4 |
| 20260507163038 | 16 | 80 | 0.0 | 12.9 | 0.00 | 0.00 | 0.00 | 43 | 1017.5 |
| 20260507161539 | 15 | 11 | 0.0 | 11.3 | 0.00 | 0.00 | 0.00 | 44 | 1017.7 |
| 20260507160034 | 15 | 234 | 0.0 | 1.6 | 0.00 | 0.00 | 0.00 | 44 | 1017.8 |
| 20260507154527 | 15 | 292 | 1.6 | 17.7 | 0.00 | 0.00 | 0.00 | 40 | 1018.0 |
| 20260507153024 | 15 | 206 | 0.0 | 4.8 | 0.00 | 0.00 | 0.00 | 45 | 1018.0 |
| 20260507151522 | 15 | 265 | 0.0 | 6.4 | 0.00 | 0.00 | 0.00 | 48 | 1018.2 |
| 20260507150020 | 14 | 212 | 0.0 | 4.8 | 0.00 | 0.00 | 0.00 | 53 | 1018.3 |
| 20260507144514 | 13 | 207 | 0.0 | 1.6 | 0.00 | 0.00 | 0.00 | 60 | 1018.5 |
| 20260507143022 | 12 | 200 | 0.0 | 0.0 | 0.00 | 0.00 | 0.00 | 61 | 1018.6 |
| 20260507141507 | 12 | 236 | 0.0 | 4.8 | 0.00 | 0.00 | 0.00 | 62 | 1018.7 |
| 20260507140003 | 11 | 243 | 0.0 | 1.6 | 0.00 | 0.00 | 0.00 | 67 | 1018.7 |
| 20260507134610 | 10 | 215 | 0.0 | 0.0 | 0.00 | 0.00 | 0.00 | 69 | 1018.7 |
| 20260507133059 | 10 | 217 | 0.0 | 4.8 | 0.00 | 0.00 | 0.00 | 74 | 1018.6 |
| 20260507131602 | 8 | 231 | 0.0 | 0.0 | 0.00 | 0.00 | 0.00 | 81 | 1018.5 |
| 20260507130047 | 7 | 225 | 0.0 | 0.0 | 0.00 | 0.00 | 0.00 | 87 | 1018.7 |
| 20260507124544 | 7 | 225 | 0.0 | 0.0 | 0.00 | 0.00 | 0.00 | 90 | 1018.5 |
| 20260507123055 | 6 | 225 | 0.0 | 0.0 | 0.00 | 0.00 | 0.00 | 91 | 1018.4 |
| 20260507121544 | 5 | 225 | 0.0 | 1.6 | 0.00 | 0.00 | 0.00 | 91 | 1018.4 |
| 20260507120040 | 5 | 10 | 0.0 | 0.0 | 0.00 | 0.00 | 0.00 | 91 | 1018.2 |
| 20260507114539 | 5 | 10 | 0.0 | 0.0 | 0.00 | 0.00 | 0.00 | 91 | 1018.2 |
| 20260507113039 | 5 | 10 | 0.0 | 0.0 | 0.00 | 0.00 | 0.00 | 91 | 1018.0 |
| 20260507111539 | 5 | 10 | 0.0 | 0.0 | 0.00 | 0.00 | 0.00 | 91 | 1018.0 |
| 20260507110038 | 5 | 10 | 0.0 | 0.0 | 0.00 | 0.00 | 0.00 | 91 | 1017.8 |